| time (UTC) | temp F | wind direction | speed MPH | gust MPH | rain 1hr in | rain 24hr in | rain mn in | humidity % | barometer mb |
| 20260831055249 | 66 | 168 | 0.0 | 0.0 | 0.00 | 0.00 | 0.00 | 72 | 976.5 |
| 20260831054744 | 67 | 168 | 0.0 | 0.0 | 0.00 | 0.00 | 0.00 | 72 | 976.6 |
| 20260831054237 | 67 | 168 | 0.0 | 0.0 | 0.00 | 0.00 | 0.00 | 72 | 976.6 |
| 20260831053731 | 67 | 168 | 0.0 | 0.0 | 0.00 | 0.00 | 0.00 | 72 | 976.6 |
| 20260831053225 | 67 | 168 | 0.0 | 0.0 | 0.00 | 0.00 | 0.00 | 72 | 976.7 |
| 20260831052719 | 67 | 168 | 0.0 | 0.0 | 0.00 | 0.00 | 0.00 | 72 | 976.7 |
| 20260831052214 | 67 | 168 | 0.0 | 0.0 | 0.00 | 0.00 | 0.00 | 73 | 976.7 |
| 20260831051707 | 67 | 168 | 0.0 | 0.0 | 0.00 | 0.00 | 0.00 | 73 | 976.8 |
| 20260831051202 | 67 | 168 | 0.0 | 0.0 | 0.00 | 0.00 | 0.00 | 73 | 976.7 |
| 20260831050655 | 67 | 168 | 0.0 | 0.0 | 0.00 | 0.00 | 0.00 | 73 | 976.7 |
| 20260831050149 | 67 | 168 | 0.0 | 0.0 | 0.00 | 0.00 | 0.00 | 73 | 976.6 |
| 20260831045644 | 67 | 168 | 0.0 | 0.0 | 0.00 | 0.00 | 0.00 | 73 | 976.6 |
| 20260831045137 | 68 | 168 | 0.0 | 0.0 | 0.00 | 0.00 | 0.00 | 73 | 976.6 |
| 20260831044631 | 68 | 168 | 0.0 | 0.0 | 0.00 | 0.00 | 0.00 | 73 | 976.6 |
| 20260831043620 | 68 | 168 | 0.0 | 0.0 | 0.00 | 0.00 | 0.00 | 73 | 976.7 |
| 20260831043113 | 68 | 168 | 0.0 | 0.0 | 0.00 | 0.00 | 0.00 | 73 | 976.7 |
| 20260831042609 | 68 | 168 | 0.0 | 0.0 | 0.00 | 0.00 | 0.00 | 73 | 976.7 |
| 20260831042101 | 68 | 168 | 0.0 | 0.0 | 0.00 | 0.00 | 0.00 | 73 | 976.7 |
| 20260831041050 | 68 | 168 | 0.0 | 0.0 | 0.00 | 0.00 | 0.00 | 74 | 976.7 |
| 20260831040543 | 68 | 168 | 0.0 | 0.0 | 0.00 | 0.00 | 0.00 | 74 | 976.7 |
| 20260831040037 | 69 | 168 | 0.0 | 0.0 | 0.00 | 0.00 | 0.00 | 74 | 976.8 |
| 20260831035531 | 69 | 168 | 0.0 | 0.0 | 0.00 | 0.00 | 0.00 | 74 | 976.9 |
| 20260831035025 | 69 | 168 | 0.0 | 0.0 | 0.00 | 0.00 | 0.00 | 75 | 976.8 |
| 20260831034519 | 69 | 168 | 0.0 | 0.0 | 0.00 | 0.00 | 0.00 | 75 | 976.9 |
| 20260831034013 | 69 | 168 | 0.0 | 0.0 | 0.00 | 0.00 | 0.00 | 75 | 976.8 |
| 20260831033507 | 69 | 168 | 0.0 | 0.0 | 0.00 | 0.00 | 0.00 | 75 | 976.8 |
| 20260831033001 | 69 | 168 | 0.0 | 0.0 | 0.00 | 0.00 | 0.00 | 75 | 976.8 |
| 20260831032455 | 69 | 168 | 0.0 | 0.0 | 0.00 | 0.00 | 0.00 | 75 | 977.0 |
| 20260831031950 | 69 | 168 | 0.0 | 0.0 | 0.00 | 0.00 | 0.00 | 75 | 976.9 |
| 20260831031444 | 69 | 168 | 0.0 | 0.0 | 0.00 | 0.00 | 0.00 | 76 | 977.0 |
| 20260831030937 | 70 | 168 | 0.0 | 0.0 | 0.00 | 0.00 | 0.00 | 76 | 977.0 |
| 20260831030432 | 70 | 168 | 0.0 | 0.0 | 0.00 | 0.00 | 0.00 | 76 | 977.0 |
| 20260831025419 | 70 | 168 | 0.0 | 0.0 | 0.00 | 0.00 | 0.00 | 77 | 977.1 |
| 20260831024914 | 70 | 168 | 0.0 | 0.0 | 0.00 | 0.00 | 0.00 | 78 | 977.1 |
| 20260831024408 | 70 | 168 | 0.0 | 0.0 | 0.00 | 0.00 | 0.00 | 78 | 977.1 |
| 20260831023902 | 70 | 168 | 0.0 | 0.0 | 0.00 | 0.00 | 0.00 | 78 | 977.1 |
| 20260831022850 | 71 | 168 | 0.0 | 0.0 | 0.00 | 0.00 | 0.00 | 78 | 977.1 |
| 20260831021837 | 71 | 168 | 0.0 | 0.0 | 0.00 | 0.00 | 0.00 | 78 | 977.1 |
| 20260831021331 | 71 | 168 | 0.0 | 0.0 | 0.00 | 0.00 | 0.00 | 79 | 977.1 |
| 20260831020319 | 71 | 168 | 0.0 | 0.0 | 0.00 | 0.00 | 0.00 | 80 | 977.2 |
| 20260831015813 | 71 | 168 | 0.0 | 0.0 | 0.00 | 0.00 | 0.00 | 80 | 977.1 |
| 20260831014802 | 71 | 168 | 0.0 | 0.0 | 0.00 | 0.00 | 0.00 | 82 | 977.1 |
| 20260831013749 | 71 | 168 | 0.0 | 0.0 | 0.00 | 0.00 | 0.00 | 83 | 977.0 |
| 20260831013247 | 72 | 168 | 0.0 | 0.0 | 0.00 | 0.00 | 0.00 | 83 | 977.0 |
| 20260831012746 | 72 | 168 | 0.0 | 0.0 | 0.00 | 0.00 | 0.00 | 84 | 976.9 |
| 20260831012247 | 72 | 168 | 0.0 | 0.0 | 0.00 | 0.00 | 0.00 | 84 | 976.8 |
| 20260831011745 | 72 | 168 | 0.0 | 0.0 | 0.00 | 0.00 | 0.00 | 84 | 976.7 |
| 20260831011243 | 72 | 168 | 0.0 | 0.0 | 0.00 | 0.00 | 0.00 | 85 | 976.6 |
| 20260831010740 | 73 | 168 | 0.0 | 0.0 | 0.00 | 0.00 | 0.00 | 85 | 976.6 |
| 20260831010239 | 73 | 168 | 0.0 | 0.0 | 0.00 | 0.00 | 0.00 | 85 | 976.5 |
| 20260831005738 | 73 | 168 | 0.0 | 0.0 | 0.00 | 0.00 | 0.00 | 86 | 976.4 |
| 20260831005239 | 73 | 168 | 0.0 | 0.0 | 0.00 | 0.00 | 0.00 | 86 | 976.3 |
| 20260831004737 | 74 | 168 | 0.0 | 0.0 | 0.00 | 0.00 | 0.00 | 86 | 976.3 |
| 20260831004235 | 74 | 168 | 0.0 | 0.0 | 0.00 | 0.00 | 0.00 | 86 | 976.3 |
| 20260831003733 | 74 | 168 | 0.0 | 0.0 | 0.00 | 0.00 | 0.00 | 87 | 976.3 |
| 20260831002729 | 75 | 168 | 0.0 | 0.0 | 0.00 | 0.00 | 0.00 | 87 | 976.2 |
| 20260831002228 | 75 | 168 | 0.0 | 0.0 | 0.00 | 0.00 | 0.00 | 87 | 976.2 |
| 20260831001729 | 76 | 168 | 0.0 | 0.0 | 0.00 | 0.00 | 0.00 | 87 | 976.2 |
| 20260831001227 | 76 | 168 | 0.0 | 0.0 | 0.00 | 0.00 | 0.00 | 87 | 976.1 |
| 20260831000724 | 76 | 168 | 0.0 | 0.0 | 0.00 | 0.00 | 0.00 | 87 | 976.1 |
| 20260831000222 | 77 | 168 | 0.0 | 0.0 | 0.00 | 0.00 | 0.00 | 87 | 976.1 |
| 20260830235220 | 77 | 168 | 0.0 | 0.0 | 0.00 | 0.00 | 0.00 | 86 | 976.0 |
| 20260830234722 | 78 | 168 | 0.0 | 0.0 | 0.00 | 0.00 | 0.00 | 86 | 976.0 |
| 20260830234220 | 78 | 168 | 0.0 | 0.0 | 0.00 | 0.00 | 0.00 | 85 | 975.9 |
| 20260830233721 | 79 | 168 | 0.0 | 0.0 | 0.00 | 0.00 | 0.00 | 85 | 976.0 |
| 20260830233221 | 79 | 168 | 0.0 | 0.0 | 0.00 | 0.00 | 0.00 | 84 | 976.0 |
| 20260830232721 | 80 | 168 | 0.0 | 0.0 | 0.00 | 0.00 | 0.00 | 84 | 976.1 |
| 20260830232221 | 81 | 168 | 0.0 | 2.0 | 0.00 | 0.00 | 0.00 | 83 | 976.1 |
| 20260830231720 | 81 | 168 | 0.0 | 2.0 | 0.00 | 0.00 | 0.00 | 81 | 976.1 |
| 20260830231221 | 82 | 169 | 0.0 | 4.0 | 0.00 | 0.00 | 0.00 | 81 | 976.1 |
| 20260830230716 | 82 | 169 | 0.0 | 4.0 | 0.00 | 0.00 | 0.00 | 78 | 976.0 |
| 20260830230217 | 83 | 186 | 0.0 | 2.0 | 0.00 | 0.00 | 0.00 | 78 | 976.1 |
| 20260830225716 | 83 | 186 | 1.0 | 3.0 | 0.00 | 0.00 | 0.00 | 78 | 976.0 |
| 20260830225217 | 83 | 186 | 1.0 | 3.0 | 0.00 | 0.00 | 0.00 | 77 | 976.0 |
| 20260830224717 | 84 | 269 | 0.0 | 3.0 | 0.00 | 0.00 | 0.00 | 76 | 976.0 |
| 20260830224217 | 85 | 269 | 0.0 | 3.0 | 0.00 | 0.00 | 0.00 | 75 | 975.9 |
| 20260830223718 | 85 | 274 | 0.0 | 1.0 | 0.00 | 0.00 | 0.00 | 75 | 975.9 |
| 20260830223217 | 85 | 274 | 0.0 | 2.0 | 0.00 | 0.00 | 0.00 | 75 | 975.8 |
| 20260830221713 | 84 | 144 | 0.0 | 4.0 | 0.00 | 0.00 | 0.00 | 76 | 975.8 |
| 20260830221212 | 84 | 144 | 1.0 | 7.0 | 0.00 | 0.00 | 0.00 | 75 | 975.9 |
| 20260830220712 | 84 | 144 | 2.0 | 7.0 | 0.00 | 0.00 | 0.00 | 74 | 975.9 |
| 20260830220214 | 84 | 117 | 2.0 | 7.0 | 0.00 | 0.00 | 0.00 | 73 | 976.0 |
| 20260830215714 | 84 | 164 | 1.0 | 7.0 | 0.00 | 0.00 | 0.00 | 74 | 975.9 |
| 20260830215213 | 84 | 233 | 2.0 | 7.0 | 0.00 | 0.00 | 0.00 | 75 | 975.9 |
| 20260830214213 | 85 | 198 | 2.0 | 4.0 | 0.00 | 0.00 | 0.00 | 73 | 976.0 |
| 20260830213707 | 85 | 159 | 1.0 | 9.0 | 0.00 | 0.00 | 0.00 | 74 | 976.0 |
| 20260830213207 | 85 | 184 | 2.0 | 9.0 | 0.00 | 0.00 | 0.00 | 73 | 976.0 |
| 20260830212705 | 85 | 109 | 1.0 | 8.0 | 0.00 | 0.00 | 0.00 | 74 | 976.1 |
| 20260830212205 | 86 | 135 | 0.0 | 6.0 | 0.00 | 0.00 | 0.00 | 74 | 976.1 |
| 20260830211706 | 85 | 121 | 1.0 | 4.0 | 0.00 | 0.00 | 0.00 | 76 | 976.1 |
| 20260830211205 | 85 | 121 | 2.0 | 7.0 | 0.00 | 0.00 | 0.00 | 74 | 976.0 |
| 20260830210705 | 85 | 98 | 2.0 | 7.0 | 0.00 | 0.00 | 0.00 | 75 | 976.1 |
| 20260830210204 | 85 | 143 | 2.0 | 6.0 | 0.00 | 0.00 | 0.00 | 73 | 976.1 |
| 20260830205705 | 85 | 115 | 1.0 | 4.0 | 0.00 | 0.00 | 0.00 | 75 | 976.0 |
| 20260830204701 | 84 | 144 | 2.0 | 7.0 | 0.00 | 0.00 | 0.00 | 76 | 976.1 |
| 20260830203700 | 84 | 157 | 1.0 | 5.0 | 0.00 | 0.00 | 0.00 | 75 | 976.2 |
| 20260830203201 | 84 | 151 | 2.0 | 9.0 | 0.00 | 0.00 | 0.00 | 76 | 976.2 |
| 20260830202700 | 85 | 151 | 3.0 | 9.0 | 0.00 | 0.00 | 0.00 | 74 | 976.2 |
| 20260830202200 | 85 | 209 | 3.0 | 7.0 | 0.00 | 0.00 | 0.00 | 74 | 976.2 |
| 20260830201700 | 85 | 189 | 2.0 | 7.0 | 0.00 | 0.00 | 0.00 | 75 | 976.2 |
| 20260830201202 | 85 | 96 | 2.0 | 7.0 | 0.00 | 0.00 | 0.00 | 74 | 976.3 |
| 20260830200701 | 85 | 153 | 2.0 | 7.0 | 0.00 | 0.00 | 0.00 | 75 | 976.2 |
| 20260830200201 | 85 | 346 | 2.0 | 6.0 | 0.00 | 0.00 | 0.00 | 77 | 976.2 |
| 20260830195700 | 84 | 230 | 1.0 | 5.0 | 0.00 | 0.00 | 0.00 | 75 | 976.3 |
| 20260830195201 | 84 | 172 | 2.0 | 8.0 | 0.00 | 0.00 | 0.00 | 76 | 976.5 |
| 20260830194700 | 84 | 184 | 2.0 | 8.0 | 0.00 | 0.00 | 0.00 | 76 | 976.5 |
| 20260830194201 | 83 | 142 | 2.0 | 7.0 | 0.00 | 0.00 | 0.00 | 77 | 976.6 |
| 20260830193701 | 83 | 87 | 1.0 | 4.0 | 0.00 | 0.00 | 0.00 | 76 | 976.6 |
| 20260830193200 | 83 | 85 | 1.0 | 4.0 | 0.00 | 0.00 | 0.00 | 79 | 976.6 |
| 20260830192200 | 83 | 119 | 2.0 | 6.0 | 0.00 | 0.00 | 0.00 | 77 | 976.7 |
| 20260830191658 | 83 | 105 | 2.0 | 6.0 | 0.00 | 0.00 | 0.00 | 79 | 976.8 |
| 20260830190702 | 83 | 98 | 1.0 | 7.0 | 0.00 | 0.00 | 0.00 | 78 | 976.9 |
| 20260830190200 | 84 | 117 | 1.0 | 4.0 | 0.00 | 0.00 | 0.00 | 78 | 976.9 |
| 20260830185654 | 84 | 34 | 1.0 | 4.0 | 0.00 | 0.00 | 0.00 | 77 | 977.0 |
| 20260830185148 | 85 | 327 | 1.0 | 4.0 | 0.00 | 0.00 | 0.00 | 75 | 977.1 |
| 20260830184136 | 85 | 338 | 1.0 | 4.0 | 0.00 | 0.00 | 0.00 | 73 | 977.2 |
| 20260830183630 | 84 | 314 | 2.0 | 6.0 | 0.00 | 0.00 | 0.00 | 75 | 977.3 |
| 20260830183124 | 84 | 243 | 2.0 | 6.0 | 0.00 | 0.00 | 0.00 | 76 | 977.4 |
| 20260830182618 | 84 | 205 | 1.0 | 4.0 | 0.00 | 0.00 | 0.00 | 75 | 977.6 |
| 20260830182112 | 83 | 128 | 2.0 | 4.0 | 0.00 | 0.00 | 0.00 | 76 | 977.7 |
| 20260830181100 | 83 | 128 | 1.0 | 4.0 | 0.00 | 0.00 | 0.00 | 78 | 977.9 |
| 20260830180554 | 82 | 128 | 1.0 | 3.0 | 0.00 | 0.00 | 0.00 | 79 | 977.9 |
| 20260830175542 | 82 | 73 | 0.0 | 5.0 | 0.00 | 0.00 | 0.00 | 79 | 978.0 |
| 20260830174534 | 83 | 57 | 2.0 | 5.0 | 0.00 | 0.00 | 0.00 | 78 | 978.1 |
| 20260830174021 | 83 | 66 | 1.0 | 5.0 | 0.00 | 0.00 | 0.00 | 81 | 978.1 |
| 20260830173514 | 83 | 76 | 1.0 | 4.0 | 0.00 | 0.00 | 0.00 | 82 | 978.2 |
| 20260830173008 | 82 | 65 | 0.0 | 4.0 | 0.00 | 0.00 | 0.00 | 81 | 978.3 |
| 20260830172503 | 83 | 123 | 1.0 | 4.0 | 0.00 | 0.00 | 0.00 | 81 | 978.4 |
| 20260830171956 | 83 | 124 | 1.0 | 4.0 | 0.00 | 0.00 | 0.00 | 77 | 978.5 |
| 20260830170944 | 82 | 319 | 1.0 | 4.0 | 0.00 | 0.00 | 0.00 | 79 | 978.6 |
| 20260830170439 | 81 | 325 | 2.0 | 6.0 | 0.00 | 0.00 | 0.00 | 80 | 978.7 |
| 20260830165933 | 81 | 325 | 1.0 | 6.0 | 0.00 | 0.00 | 0.00 | 81 | 978.8 |
| 20260830165427 | 81 | 105 | 1.0 | 4.0 | 0.00 | 0.00 | 0.00 | 83 | 978.9 |
| 20260830164920 | 81 | 102 | 1.0 | 4.0 | 0.00 | 0.00 | 0.00 | 80 | 979.0 |
| 20260830164414 | 81 | 96 | 2.0 | 6.0 | 0.00 | 0.00 | 0.00 | 82 | 979.1 |
| 20260830163403 | 81 | 107 | 1.0 | 8.0 | 0.00 | 0.00 | 0.00 | 82 | 979.1 |
| 20260830162350 | 80 | 115 | 1.0 | 6.0 | 0.00 | 0.00 | 0.00 | 82 | 979.2 |
| 20260830161845 | 80 | 113 | 1.0 | 6.0 | 0.00 | 0.00 | 0.00 | 83 | 979.1 |
| 20260830161338 | 80 | 156 | 0.0 | 5.0 | 0.00 | 0.00 | 0.00 | 83 | 979.1 |
| 20260830160832 | 80 | 57 | 0.0 | 2.0 | 0.00 | 0.00 | 0.00 | 85 | 979.2 |
| 20260830160326 | 79 | 74 | 0.0 | 1.0 | 0.00 | 0.00 | 0.00 | 85 | 979.2 |
| 20260830155314 | 79 | 104 | 0.0 | 3.0 | 0.00 | 0.00 | 0.00 | 84 | 979.2 |
| 20260830154303 | 79 | 83 | 1.0 | 4.0 | 0.00 | 0.00 | 0.00 | 84 | 979.3 |
| 20260830152745 | 78 | 74 | 1.0 | 4.0 | 0.00 | 0.00 | 0.00 | 86 | 979.4 |
| 20260830152238 | 78 | 61 | 1.0 | 7.0 | 0.00 | 0.00 | 0.00 | 86 | 979.4 |
| 20260830151738 | 78 | 118 | 2.0 | 7.0 | 0.00 | 0.00 | 0.00 | 85 | 979.3 |
| 20260830151226 | 78 | 28 | 2.0 | 5.0 | 0.00 | 0.00 | 0.00 | 86 | 979.4 |
| 20260830150214 | 77 | 99 | 1.0 | 5.0 | 0.00 | 0.00 | 0.00 | 86 | 979.4 |
| 20260830145710 | 76 | 80 | 1.0 | 5.0 | 0.00 | 0.00 | 0.00 | 86 | 979.4 |
| 20260830145203 | 75 | 86 | 1.0 | 4.0 | 0.00 | 0.00 | 0.00 | 86 | 979.5 |
| 20260830144150 | 75 | 97 | 0.0 | 3.0 | 0.00 | 0.00 | 0.00 | 86 | 979.5 |
| 20260830143645 | 75 | 83 | 0.0 | 4.0 | 0.00 | 0.00 | 0.00 | 85 | 979.5 |
| 20260830143138 | 75 | 61 | 0.0 | 4.0 | 0.00 | 0.00 | 0.00 | 85 | 979.5 |
| 20260830142632 | 74 | 69 | 1.0 | 3.0 | 0.00 | 0.00 | 0.00 | 85 | 979.5 |
| 20260830142126 | 74 | 69 | 0.0 | 3.0 | 0.00 | 0.00 | 0.00 | 85 | 979.5 |
| 20260830141620 | 74 | 90 | 0.0 | 3.0 | 0.00 | 0.00 | 0.00 | 85 | 979.5 |
| 20260830141114 | 74 | 83 | 0.0 | 3.0 | 0.00 | 0.00 | 0.00 | 85 | 979.5 |
| 20260830140609 | 74 | 129 | 0.0 | 3.0 | 0.00 | 0.00 | 0.00 | 85 | 979.4 |
| 20260830135559 | 74 | 109 | 0.0 | 2.0 | 0.00 | 0.00 | 0.00 | 85 | 979.3 |
| 20260830135058 | 74 | 108 | 0.0 | 2.0 | 0.00 | 0.00 | 0.00 | 84 | 979.3 |
| 20260830134556 | 74 | 82 | 0.0 | 2.0 | 0.00 | 0.00 | 0.00 | 84 | 979.3 |
| 20260830134054 | 73 | 71 | 0.0 | 2.0 | 0.00 | 0.00 | 0.00 | 84 | 979.5 |
| 20260830133553 | 73 | 71 | 0.0 | 2.0 | 0.00 | 0.00 | 0.00 | 83 | 979.5 |
| 20260830133052 | 73 | 71 | 0.0 | 2.0 | 0.00 | 0.00 | 0.00 | 83 | 979.5 |
| 20260830132548 | 73 | 65 | 0.0 | 4.0 | 0.00 | 0.00 | 0.00 | 82 | 979.4 |
| 20260830132046 | 73 | 79 | 0.0 | 4.0 | 0.00 | 0.00 | 0.00 | 82 | 979.5 |
| 20260830131547 | 73 | 66 | 1.0 | 4.0 | 0.00 | 0.00 | 0.00 | 81 | 979.5 |
| 20260830131043 | 73 | 41 | 1.0 | 5.0 | 0.00 | 0.00 | 0.00 | 81 | 979.5 |
| 20260830130542 | 73 | 53 | 1.0 | 5.0 | 0.00 | 0.00 | 0.00 | 80 | 979.5 |
| 20260830130042 | 73 | 74 | 0.0 | 4.0 | 0.00 | 0.00 | 0.00 | 78 | 979.5 |
| 20260830125542 | 72 | 92 | 0.0 | 3.0 | 0.00 | 0.00 | 0.00 | 77 | 979.5 |
| 20260830125042 | 72 | 120 | 1.0 | 5.0 | 0.00 | 0.00 | 0.00 | 75 | 979.5 |
| 20260830124537 | 72 | 121 | 1.0 | 5.0 | 0.00 | 0.00 | 0.00 | 74 | 979.5 |
| 20260830124038 | 72 | 98 | 1.0 | 3.0 | 0.00 | 0.00 | 0.00 | 72 | 979.5 |
| 20260830123537 | 71 | 74 | 0.0 | 3.0 | 0.00 | 0.00 | 0.00 | 71 | 979.5 |
| 20260830122535 | 71 | 94 | 0.0 | 3.0 | 0.00 | 0.00 | 0.00 | 70 | 979.3 |
| 20260830122034 | 71 | 74 | 0.0 | 0.0 | 0.00 | 0.00 | 0.00 | 70 | 979.3 |
| 20260830121029 | 71 | 74 | 0.0 | 0.0 | 0.00 | 0.00 | 0.00 | 70 | 979.2 |
| 20260830120530 | 70 | 74 | 0.0 | 0.0 | 0.00 | 0.00 | 0.00 | 70 | 979.1 |
| 20260830120030 | 70 | 75 | 0.0 | 0.0 | 0.00 | 0.00 | 0.00 | 71 | 979.0 |
| 20260830115529 | 70 | 75 | 0.0 | 0.0 | 0.00 | 0.00 | 0.00 | 70 | 978.9 |
| 20260830113530 | 70 | 63 | 0.0 | 2.0 | 0.00 | 0.00 | 0.00 | 71 | 978.6 |
| 20260830113025 | 70 | 119 | 0.0 | 3.0 | 0.00 | 0.00 | 0.00 | 71 | 978.7 |
| 20260830112525 | 70 | 119 | 0.0 | 3.0 | 0.00 | 0.00 | 0.00 | 71 | 978.5 |
| 20260830112026 | 70 | 119 | 0.0 | 0.0 | 0.00 | 0.00 | 0.00 | 71 | 978.6 |
| 20260830111025 | 70 | 119 | 0.0 | 0.0 | 0.00 | 0.00 | 0.00 | 70 | 978.5 |
| 20260830110026 | 70 | 119 | 0.0 | 0.0 | 0.00 | 0.00 | 0.00 | 71 | 978.5 |
| 20260830105025 | 70 | 119 | 0.0 | 0.0 | 0.00 | 0.00 | 0.00 | 71 | 978.3 |
| 20260830104522 | 70 | 119 | 0.0 | 0.0 | 0.00 | 0.00 | 0.00 | 71 | 978.2 |
| 20260830104022 | 70 | 119 | 0.0 | 0.0 | 0.00 | 0.00 | 0.00 | 71 | 978.1 |
| 20260830103521 | 70 | 119 | 0.0 | 0.0 | 0.00 | 0.00 | 0.00 | 71 | 978.0 |
| 20260830102522 | 70 | 119 | 0.0 | 0.0 | 0.00 | 0.00 | 0.00 | 71 | 978.0 |
| 20260830101521 | 70 | 119 | 0.0 | 0.0 | 0.00 | 0.00 | 0.00 | 71 | 978.0 |
| 20260830101019 | 70 | 119 | 0.0 | 0.0 | 0.00 | 0.00 | 0.00 | 71 | 978.0 |
| 20260830100518 | 70 | 119 | 0.0 | 0.0 | 0.00 | 0.00 | 0.00 | 71 | 977.8 |
| 20260830100015 | 70 | 119 | 0.0 | 0.0 | 0.00 | 0.00 | 0.00 | 71 | 977.8 |
| 20260830095518 | 70 | 119 | 0.0 | 0.0 | 0.00 | 0.00 | 0.00 | 71 | 977.8 |
| 20260830095011 | 70 | 119 | 0.0 | 0.0 | 0.00 | 0.00 | 0.00 | 71 | 977.8 |
| 20260830094505 | 70 | 119 | 0.0 | 0.0 | 0.00 | 0.00 | 0.00 | 71 | 977.8 |
| 20260830093453 | 70 | 119 | 0.0 | 0.0 | 0.00 | 0.00 | 0.00 | 71 | 977.8 |
| 20260830092947 | 70 | 119 | 0.0 | 0.0 | 0.00 | 0.00 | 0.00 | 71 | 977.7 |
| 20260830092441 | 70 | 119 | 0.0 | 0.0 | 0.00 | 0.00 | 0.00 | 71 | 977.8 |
| 20260830091936 | 70 | 119 | 0.0 | 0.0 | 0.00 | 0.00 | 0.00 | 71 | 977.8 |
| 20260830091429 | 70 | 119 | 0.0 | 0.0 | 0.00 | 0.00 | 0.00 | 71 | 977.8 |
| 20260830090417 | 70 | 119 | 0.0 | 0.0 | 0.00 | 0.00 | 0.00 | 71 | 977.9 |
| 20260830085911 | 70 | 119 | 0.0 | 0.0 | 0.00 | 0.00 | 0.00 | 71 | 977.9 |
| 20260830085407 | 70 | 119 | 0.0 | 0.0 | 0.00 | 0.00 | 0.00 | 71 | 978.0 |
| 20260830084859 | 70 | 119 | 0.0 | 0.0 | 0.00 | 0.00 | 0.00 | 71 | 977.9 |
| 20260830084354 | 70 | 119 | 0.0 | 0.0 | 0.00 | 0.00 | 0.00 | 71 | 977.9 |
| 20260830083847 | 70 | 119 | 0.0 | 0.0 | 0.00 | 0.00 | 0.00 | 71 | 977.9 |
| 20260830083342 | 70 | 119 | 0.0 | 0.0 | 0.00 | 0.00 | 0.00 | 71 | 977.9 |
| 20260830082329 | 70 | 119 | 0.0 | 0.0 | 0.00 | 0.00 | 0.00 | 71 | 977.9 |
| 20260830081823 | 71 | 119 | 0.0 | 2.0 | 0.00 | 0.00 | 0.00 | 71 | 977.9 |
| 20260830081317 | 71 | 119 | 0.0 | 2.0 | 0.00 | 0.00 | 0.00 | 71 | 978.0 |
| 20260830080811 | 71 | 120 | 0.0 | 1.0 | 0.00 | 0.00 | 0.00 | 71 | 978.1 |
| 20260830075759 | 70 | 71 | 0.0 | 2.0 | 0.00 | 0.00 | 0.00 | 71 | 978.1 |
| 20260830075253 | 70 | 71 | 0.0 | 2.0 | 0.00 | 0.00 | 0.00 | 71 | 978.2 |
| 20260830074747 | 70 | 71 | 0.0 | 0.0 | 0.00 | 0.00 | 0.00 | 71 | 978.1 |
| 20260830074241 | 70 | 71 | 0.0 | 0.0 | 0.00 | 0.00 | 0.00 | 71 | 978.1 |
| 20260830073735 | 71 | 71 | 0.0 | 0.0 | 0.00 | 0.00 | 0.00 | 71 | 978.1 |
| 20260830073230 | 71 | 71 | 0.0 | 0.0 | 0.00 | 0.00 | 0.00 | 71 | 978.2 |
| 20260830072723 | 71 | 71 | 0.0 | 0.0 | 0.00 | 0.00 | 0.00 | 71 | 978.1 |
| 20260830072218 | 71 | 71 | 0.0 | 0.0 | 0.00 | 0.00 | 0.00 | 71 | 978.1 |
| 20260830071206 | 70 | 71 | 0.0 | 0.0 | 0.00 | 0.00 | 0.00 | 71 | 978.1 |
| 20260830070659 | 70 | 71 | 0.0 | 0.0 | 0.00 | 0.00 | 0.00 | 71 | 978.1 |
| 20260830070153 | 70 | 71 | 0.0 | 0.0 | 0.00 | 0.00 | 0.00 | 71 | 978.1 |
| 20260830065647 | 70 | 71 | 0.0 | 0.0 | 0.00 | 0.00 | 0.00 | 72 | 978.1 |
| 20260830065142 | 70 | 71 | 0.0 | 0.0 | 0.00 | 0.00 | 0.00 | 72 | 978.1 |
| 20260830064129 | 70 | 71 | 0.0 | 0.0 | 0.00 | 0.00 | 0.00 | 72 | 978.2 |
| 20260830063117 | 70 | 71 | 0.0 | 0.0 | 0.00 | 0.00 | 0.00 | 72 | 978.3 |
| 20260830062611 | 70 | 71 | 0.0 | 0.0 | 0.00 | 0.00 | 0.00 | 73 | 978.4 |
| 20260830062105 | 69 | 71 | 0.0 | 0.0 | 0.00 | 0.00 | 0.00 | 73 | 978.4 |
| 20260830061559 | 69 | 71 | 0.0 | 0.0 | 0.00 | 0.00 | 0.00 | 73 | 978.4 |
| 20260830061053 | 69 | 71 | 0.0 | 0.0 | 0.00 | 0.00 | 0.00 | 73 | 978.3 |
| 20260830060548 | 69 | 71 | 0.0 | 0.0 | 0.00 | 0.00 | 0.00 | 73 | 978.4 |
| 20260830060042 | 69 | 71 | 0.0 | 0.0 | 0.00 | 0.00 | 0.00 | 73 | 978.4 |